Overview Statistics Trail Chart Weather Telemetry Raw packets
 

This is the latest recevied weather packets stored in our database for station/object KC0OOO-WX. If no packets are shown the sender has not sent any weather packets the latest 10 day(s).

<< 15 16 17 18 19 20 21 >>
Time Temp. Humidity Pressure Rain* Wind** Luminosity Snow
1777576207 17.22° C 20% 1016.3 hPa 0 mm - - -
1777575607 16.11° C 22% 1016.3 hPa 0 mm - - -
1777575007 16.67° C 22% 1016.6 hPa 0 mm - - -
1777574407 16.67° C 21% 1016.6 hPa 0 mm - - -
1777573807 15.56° C 20% 1016.6 hPa 0 mm - - -
1777573207 16.11° C 21% 1016.9 hPa 0 mm - - -
1777572577 15.56° C 21% 1016.9 hPa 0 mm - - -
1777571947 15° C 21% 1016.9 hPa 0 mm - - -
1777571347 15.56° C 22% 1016.9 hPa 0 mm - - -
1777570747 15.56° C 21% 1017.3 hPa 0 mm - - -
1777570147 16.11° C 20% 1017.3 hPa 0 mm - - -
1777569547 15.56° C 24% 1017.6 hPa 0 mm - - -
1777568947 15° C 24% 1017.6 hPa 0 mm - - -
1777568347 15° C 24% 1017.6 hPa 0 mm - - -
1777567747 14.44° C 26% 1017.6 hPa 0 mm - - -
1777567117 13.89° C 26% 1017.9 hPa 0 mm - - -
1777566517 12.78° C 31% 1017.9 hPa 0 mm - - -
1777565917 11.67° C 35% 1017.9 hPa 0 mm - - -
1777565317 11.67° C 34% 1017.9 hPa 0 mm - - -
1777564687 10.56° C 34% 1018.3 hPa 0 mm - - -
1777564087 10° C 37% 1018.3 hPa 0 mm - - -
1777563487 8.89° C 37% 1018.3 hPa 0 mm - - -
1777562887 7.78° C 38% 1018.3 hPa 0 mm - - -
1777562287 7.22° C 45% 1018.3 hPa 0 mm - - -
1777561686 6.67° C 50% 1018.3 hPa 0 mm - - -

* Rain latest hour (hover to see other rain measurements)
** Current wind speed in m/s (hover to see current wind gust speed)